Temperature
16 15 15 15 15 16 16 16 16 16 16 16 16 16 16 16 16 16 16 16 16 16 16 16 16 16 17 17 17 17 17 17 17 17 17 17 17 17 17 17 18 18 17
16 15 15 15 15 15 16 16 16 16 16 16 16 16 16 16 16 16 16 16 16 16 16 16 16 16 16 16 17 17 17 17 17 17 17 17 17 17 17 17 17 17 17
15 15 15 15 15 16 16 16 16 16 16 16 16 16 16 16 16 16 16 16 16 16 16 16 16 16 16 16 16 17 17 17 17 17 17 17 17 17 17 17 17 17 17
15 15 15 15 15 15 16 16 16 16 16 16 16 16 16 16 16 16 16 15 16 16 16 16 16 16 16 16 16 16 16 17 17 17 17 17 17 17 17 17 17 17 17
15 15 15 15 15 15 16 16 16 16 16 16 16 16 16 16 16 16 15 15 15 16 16 16 16 16 16 16 16 16 16 16 17 17 17 17 17 17 17 17 17 17 17
15 15 15 15 15 16 16 16 16 16 16 16 16 16 15 15 15 15 15 15 15 15 15 15 16 16 16 16 16 16 16 16 16 17 17 17 17 17 17 17 17 17 17
15 15 15 15 15 15 15 15 16 16 16 16 16 15 15 15 15 15 15 15 15 15 15 15 15 15 16 16 16 16 16 16 16 16 16 17 17 17 17 17 17 17 17
15 15 15 15 15 15 15 15 16 16 16 16 16 15 15 15 15 15 15 15 15 15 15 15 15 15 15 15 15 16 16 16 16 16 16 16 16 16 16 17 17 17 17
15 15 15 15 15 15 15 15 15 16 16 16 16 16 15 15 15 15 15 15 15 15 15 15 15 15 15 15 15 15 15 16 16 16 16 16 16 16 16 16 16 16 16
15 15 15 15 15 15 15 15 15 15 15 15 15 15 15 15 15 14 14 14 14 14 14 14 14 14 15 15 15 15 15 15 15 16 16 16 16 16 16 16 16 16 16
15 15 15 15 15 15 15 15 15 15 15 15 15 15 15 15 15 15 14 14 14 14 14 14 14 14 14 14 15 15 15 15 15 15 15 15 15 16 16 16 16 16 16
15 15 15 15 15 15 15 15 15 15 15 15 15 15 15 15 15 15 14 14 14 14 14 14 14 14 14 14 14 14 14 15 15 15 15 15 15 15 15 15 15 15 15
15 15 15 15 15 15 15 15 15 15 15 15 15 15 15 15 15 15 14 14 14 13 13 13 13 13 13 14 14 14 14 14 14 14 14 15 15 15 15 15 15 15 15
15 15 15 15 15 15 15 15 14 14 14 14 14 14 14 14 14 14 14 14 14 13 13 13 13 13 13 13 13 13 14 14 14 14 14 14 14 14 14 14 15 15 15
15 15 15 15 15 15 15 14 14 14 14 14 14 14 14 14 14 14 14 14 14 13 13 13 13 13 13 13 13 13 13 13 13 13 14 14 14 14 14 14 14 14 14
16 15 15 15 15 15 15 14 14 14 14 14 14 14 14 14 14 14 14 14 14 14 13 12 12 13 13 13 13 13 13 13 13 13 13 13 13 13 14 14 14 14 14
16 15 15 15 15 15 14 14 14 14 14 14 14 14 14 14 14 14 14 14 13 13 13 12 12 12 13 13 13 13 13 13 13 13 13 13 13 13 13 13 13 13 13
16 15 15 15 15 14 14 14 14 14 14 14 14 14 14 14 14 14 13 13 13 13 13 12 12 12 12 12 12 13 13 13 13 13 13 13 13 13 13 13 13 13 13
16 15 15 15 15 14 14 14 14 14 14 14 13 13 13 13 13 13 13 13 13 13 12 12 12 12 12 12 12 12 12 12 12 12 12 12 12 12 12 12 12 12 12
16 15 15 15 15 14 14 14 14 14 13 13 13 13 13 13 13 13 13 12 12 12 12 12 12 12 12 12 12 12 12 12 12 12 12 12 12 12 12 12 12 12 12
16 15 15 15 14 14 14 14 14 14 13 13 13 13 13 13 12 12 12 12 12 12 12 12 12 11 11 11 11 11 11 11 11 11 11 11 11 12 11 11 11 11 11
16 15 15 15 14 14 14 14 14 13 13 13 13 13 12 12 12 12 12 12 12 12 12 11 11 11 11 11 11 10 10 10 11 11 11 11 11 11 11 11 11 11 11
15 15 15 15 14 14 14 13 13 13 13 13 13 12 12 12 12 12 12 12 11 11 11 11 11 11 10 10 10 10 10 10 10 9 10 10 11 11 10 10 10 10 10
15 15 15 14 14 14 13 13 13 13 13 13 12 12 12 12 12 12 12 11 11 11 11 11 10 10 10 10 9 9 9 9 9 9 9 9 9 9 10 10 10 10 10
15 15 15 14 14 14 13 13 13 13 13 12 12 12 12 12 12 11 11 11 11 11 10 10 10 10 9 9 9 9 9 9 9 9 9 8 8 8 9 9 9 9 9
15 15 14 14 14 13 13 13 13 12 12 12 12 12 12 11 11 11 11 11 11 11 10 10 10 10 10 9 9 9 8 8 8 8 8 7 7 7 7 8 8 8 8
Wind_Speed
3 4 4 6 6 6 5 4 4 4 4 4 5 4 4 5 5 5 4 6 7 7 7 8 7 7 7 7 7 7 7 7 6 5 4 2 1 2 3 4 5 5 7
5 4 4 5 6 6 6 5 5 4 3 4 5 5 5 6 5 5 5 6 7 7 7 7 7 8 8 8 8 8 8 7 7 6 6 4 2 3 4 5 6 6 7
7 6 4 4 6 8 8 7 7 6 4 5 5 5 5 5 5 6 6 6 6 7 8 8 8 8 8 8 8 8 8 8 8 7 7 6 4 4 4 5 6 7 8
10 8 4 4 7 9 7 4 5 5 5 5 5 5 4 5 5 6 6 6 7 7 8 9 9 9 9 9 8 8 8 8 7 7 7 7 6 5 4 5 5 7 9
11 9 5 5 8 7 5 5 5 4 4 4 4 5 5 5 4 7 6 7 7 8 8 10 11 11 11 11 10 9 9 9 8 8 8 8 7 6 6 5 4 7 10
11 9 6 7 7 5 6 5 5 5 4 3 5 7 6 5 5 5 5 6 8 9 10 10 10 10 12 13 12 11 10 9 9 9 8 8 7 7 6 5 5 7 10
10 9 6 6 6 6 5 5 4 6 5 3 4 5 6 6 7 6 5 5 7 8 10 10 10 10 10 12 14 13 12 9 9 9 9 9 8 8 8 6 6 8 10
9 8 6 5 5 5 7 7 5 4 5 5 3 4 4 6 5 7 6 6 6 7 8 9 10 11 11 11 13 16 14 12 11 10 10 10 9 8 8 7 6 6 7
9 8 7 6 5 5 5 6 6 5 4 5 4 4 4 1 2 5 6 6 6 6 5 7 10 10 11 11 12 15 16 15 13 11 11 11 10 9 8 8 7 5 5
8 8 8 7 6 4 5 5 6 4 5 4 4 4 3 3 3 2 4 5 6 7 6 7 8 10 11 11 12 15 16 16 15 14 12 11 10 10 10 10 8 7 5
6 7 7 7 5 4 5 6 6 6 5 4 3 2 4 4 4 4 2 4 4 5 5 6 7 9 11 11 12 14 16 16 15 16 15 13 12 11 11 11 10 9 7
3 5 6 6 5 4 5 5 5 7 6 6 5 5 3 3 2 3 3 2 2 3 4 5 7 8 10 11 12 14 15 15 15 15 15 15 14 13 11 11 10 9 7
2 2 4 4 4 5 6 6 6 6 6 6 5 4 4 3 2 2 3 2 3 3 4 4 6 8 10 11 12 13 15 15 15 15 15 15 14 13 13 12 11 10 8
1 2 4 4 5 6 6 6 5 5 5 6 6 5 5 4 3 3 2 3 3 4 5 4 3 8 9 11 12 13 13 15 15 15 16 16 15 15 14 13 12 12 11
2 3 4 4 5 6 6 6 5 5 6 5 5 6 5 4 4 3 3 3 4 2 3 4 4 5 9 10 12 12 12 14 15 15 15 15 15 15 15 15 14 13 12
3 4 4 4 4 5 5 5 5 4 6 5 4 6 5 4 4 4 3 3 3 4 2 2 2 3 7 9 12 12 12 14 14 14 14 14 14 15 14 14 14 13 13
4 4 4 4 4 4 4 5 4 5 6 5 5 6 5 4 4 4 4 4 4 4 4 1 2 3 5 6 9 12 12 13 13 14 15 15 15 14 14 14 14 13 13
4 4 4 5 4 4 4 5 5 5 6 6 5 5 5 5 5 5 5 5 4 3 3 2 3 4 4 5 5 6 10 11 12 14 15 15 15 15 15 14 13 13 13
5 5 5 5 4 4 5 5 5 5 5 5 4 5 4 6 5 4 5 5 3 4 3 2 2 3 3 3 4 5 6 7 10 13 14 14 15 15 15 15 15 14 14
6 6 5 5 4 4 4 5 5 5 5 4 4 4 4 4 4 4 4 4 4 4 4 3 3 3 3 3 3 4 5 5 5 9 12 13 14 15 15 15 15 15 15
6 6 5 4 4 4 4 5 5 5 5 4 4 3 3 4 5 4 4 3 4 3 3 3 2 3 3 3 4 3 4 4 4 4 5 7 9 10 12 14 15 16 16
5 5 5 5 4 2 5 7 6 5 5 4 3 2 3 4 5 6 6 5 4 3 2 1 1 1 3 3 2 2 3 4 4 4 4 5 5 4 8 10 14 16 16
5 5 5 5 4 3 5 7 8 5 4 3 3 2 2 2 4 3 5 6 5 4 2 3 1 2 2 2 2 3 3 2 3 4 3 4 4 5 8 11 14 15 15
5 5 4 5 4 3 6 7 8 5 4 3 2 2 2 1 1 3 3 3 3 3 1 1 2 3 3 3 2 2 3 3 4 4 1 2 4 4 7 10 13 14 15
5 4 4 5 5 3 5 7 8 4 3 2 1 1 2 2 2 3 3 2 2 3 4 3 3 3 5 6 4 1 2 2 4 4 1 1 3 5 5 5 10 13 15
5 5 4 4 5 4 5 7 7 4 3 2 0 0 2 2 2 2 3 2 1 3 3 4 5 6 6 6 6 1 1 1 2 3 3 1 3 4 4 4 5 10 13
Wind_Direction
44 29 21 19 16 19 26 30 34 36 41 47 59 72 84 98 104 100 86 86 87 81 81 80 76 69 63 55 50 43 37 31 29 34 27 10 143 160 154 153 150 148 150
58 50 34 27 24 25 34 42 46 50 43 54 52 60 75 85 91 96 84 71 75 71 72 76 72 69 62 52 47 41 36 31 30 30 23 33 99 143 152 154 154 155 150
59 57 41 28 25 33 38 43 39 45 47 53 51 52 67 73 77 80 77 68 65 64 65 67 65 63 58 48 42 39 38 35 34 33 32 44 75 98 131 151 158 162 157
58 58 46 28 33 39 37 41 36 41 41 49 50 43 50 61 66 75 75 68 62 58 57 60 61 58 54 46 40 39 42 43 44 40 39 46 61 76 105 134 152 164 163
58 63 54 36 41 42 31 37 40 46 50 47 56 52 43 49 53 71 68 68 66 64 63 59 56 53 50 44 39 37 43 49 52 50 48 50 57 69 83 111 129 155 160
56 61 55 39 43 43 33 34 43 43 54 54 67 56 42 41 48 53 54 60 66 66 66 59 53 48 46 42 39 36 37 48 54 53 50 49 52 60 69 88 105 142 149
59 63 56 43 42 46 39 38 45 48 40 41 63 43 31 37 47 41 42 51 54 59 65 60 54 48 42 38 36 36 34 41 54 54 52 50 52 57 57 72 99 126 140
58 65 62 54 46 48 41 39 46 53 36 34 80 75 38 19 17 27 33 49 48 53 57 56 52 47 44 41 35 35 35 40 50 55 54 53 53 57 56 61 88 108 124
59 65 67 66 54 54 50 43 49 65 59 33 50 108 106 89 358 3 20 33 37 44 43 53 52 45 43 42 38 33 36 40 45 51 56 55 56 56 57 59 63 81 106
57 66 70 70 62 56 55 49 56 63 73 51 32 46 91 135 116 39 3 14 33 40 36 46 45 39 39 42 40 35 37 40 42 45 49 52 55 56 56 56 57 59 71
48 63 72 70 63 58 60 57 57 60 66 71 59 56 60 56 66 105 61 5 20 20 28 34 37 36 35 38 39 37 37 38 39 40 41 43 45 47 49 50 53 54 56
30 48 67 69 69 66 64 63 63 64 65 69 64 61 74 79 71 89 100 53 34 4 21 27 28 29 30 32 33 34 36 38 38 39 39 39 40 41 41 41 43 45 47
50 38 64 70 69 71 74 74 68 63 62 67 65 62 63 70 99 108 107 89 52 9 12 18 18 25 29 30 28 34 34 35 34 36 36 36 36 34 35 35 33 31 31
147 93 84 87 82 78 78 77 71 67 67 67 66 64 60 47 62 87 118 119 73 25 21 359 352 16 20 27 27 34 32 33 36 36 37 37 36 33 31 29 26 25 23
131 105 96 87 82 80 81 82 75 68 69 64 65 65 60 45 48 55 76 114 127 94 20 347 355 348 9 25 26 33 33 34 36 36 36 38 37 35 32 30 25 21 18
112 110 96 86 79 79 83 82 78 74 72 58 63 67 57 45 49 50 60 69 95 127 107 335 331 328 3 21 23 27 27 27 28 28 28 30 31 29 26 23 20 18 15
120 121 112 100 91 85 87 88 82 81 75 62 59 68 59 52 57 47 55 64 69 97 112 343 337 344 10 13 11 19 20 19 17 21 24 23 21 20 21 20 18 17 14
123 119 111 103 97 93 93 96 93 86 86 80 71 69 56 63 54 47 57 61 64 80 115 74 351 357 5 359 4 10 14 17 17 16 19 20 19 18 17 15 13 12 11
124 113 110 109 104 101 98 100 104 99 95 95 92 86 73 74 65 57 62 62 56 62 74 85 9 350 350 356 0 360 5 4 12 15 15 15 14 14 13 12 10 8 6
129 122 117 116 114 108 106 105 106 102 95 87 85 88 87 90 98 88 77 71 72 63 56 60 27 355 344 338 6 358 351 346 348 3 6 7 8 10 9 8 6 4 2
136 131 119 111 111 116 123 120 113 110 103 85 72 73 79 90 95 104 100 94 85 74 61 54 24 2 347 351 348 335 341 329 328 348 349 352 356 360 360 1 1 360 359
131 127 127 127 120 121 128 129 124 115 115 110 95 69 56 68 78 84 90 91 97 100 101 87 28 346 314 311 315 335 341 353 332 328 346 330 347 338 344 353 355 355 356
138 132 133 129 130 145 138 130 125 121 118 123 126 116 86 77 83 83 68 60 51 58 102 153 161 256 273 281 313 331 329 321 289 296 339 321 328 326 329 340 348 352 351
147 148 149 148 143 156 140 129 122 109 111 118 137 149 141 134 136 119 89 51 22 4 0 97 192 237 248 262 239 250 274 297 294 297 322 299 311 310 316 321 333 342 342
152 155 156 154 152 168 155 141 128 118 114 114 138 147 151 160 183 136 110 74 356 330 337 341 327 323 326 326 330 354 343 351 324 311 314 278 298 307 304 302 320 333 334
160 157 157 164 166 178 179 162 146 135 135 141 119 234 184 186 202 162 146 152 290 296 314 333 341 340 339 336 336 326 220 287 296 300 295 305 301 325 315 297 310 319 321
Height
1550 1548 1547 1546 1545 1544 1543 1542 1542 1541 1541 1541 1541 1541 1541 1541 1542 1541 1541 1541 1541 1540 1540 1540 1539 1538 1538 1537 1536 1535 1533 1532 1530 1528 1526 1523 1522 1524 1527 1529 1531 1532 1534
1551 1550 1548 1547 1546 1545 1544 1544 1543 1543 1543 1543 1543 1543 1543 1543 1543 1543 1543 1543 1542 1542 1541 1541 1540 1540 1539 1538 1537 1535 1534 1532 1530 1528 1524 1519 1518 1521 1525 1528 1529 1531 1533
1552 1551 1549 1548 1547 1546 1545 1545 1544 1544 1544 1544 1544 1545 1545 1545 1545 1545 1545 1544 1544 1543 1543 1542 1542 1541 1540 1539 1538 1536 1534 1532 1530 1528 1525 1521 1520 1521 1524 1526 1527 1529 1531
1553 1552 1551 1549 1549 1548 1547 1546 1546 1546 1546 1546 1546 1547 1547 1547 1547 1547 1546 1546 1545 1545 1544 1544 1543 1542 1541 1540 1538 1537 1535 1532 1531 1530 1528 1525 1524 1524 1524 1524 1524 1524 1527
1555 1554 1552 1551 1550 1549 1548 1548 1547 1547 1547 1547 1548 1548 1549 1549 1549 1548 1548 1548 1547 1546 1546 1545 1545 1544 1543 1541 1540 1538 1536 1534 1533 1531 1530 1529 1528 1526 1525 1524 1520 1519 1523
1556 1555 1554 1553 1552 1551 1550 1549 1549 1549 1549 1549 1549 1550 1550 1551 1551 1550 1550 1550 1549 1548 1548 1547 1546 1545 1544 1543 1541 1539 1537 1535 1534 1533 1532 1531 1530 1529 1527 1525 1520 1518 1523
1558 1557 1555 1554 1553 1552 1551 1551 1550 1550 1550 1551 1551 1552 1552 1552 1553 1553 1552 1552 1551 1550 1550 1549 1548 1547 1545 1544 1542 1539 1537 1535 1535 1535 1534 1534 1533 1532 1530 1528 1525 1524 1527
1560 1559 1557 1556 1555 1554 1554 1553 1552 1552 1552 1553 1553 1553 1554 1555 1555 1555 1554 1554 1553 1552 1552 1551 1550 1548 1547 1546 1543 1540 1537 1535 1536 1537 1536 1536 1535 1534 1533 1532 1531 1531 1533
1562 1561 1559 1558 1557 1556 1556 1555 1554 1554 1554 1554 1554 1555 1554 1555 1556 1557 1556 1556 1555 1555 1554 1553 1552 1551 1549 1547 1546 1543 1541 1539 1539 1539 1539 1538 1537 1537 1536 1535 1535 1536 1537
1563 1563 1562 1561 1560 1559 1558 1557 1557 1556 1556 1555 1555 1555 1556 1556 1557 1558 1559 1558 1558 1557 1556 1555 1554 1552 1551 1549 1548 1546 1545 1543 1542 1541 1541 1540 1540 1539 1539 1538 1538 1539 1539
1565 1564 1564 1563 1562 1561 1560 1559 1559 1558 1558 1557 1557 1557 1557 1557 1558 1558 1559 1560 1559 1559 1558 1557 1556 1554 1553 1552 1550 1549 1547 1545 1544 1543 1542 1542 1541 1541 1541 1541 1540 1540 1541
1567 1566 1565 1565 1564 1563 1562 1561 1561 1560 1560 1559 1559 1559 1559 1559 1559 1559 1560 1560 1560 1560 1560 1559 1557 1556 1555 1553 1552 1551 1549 1548 1546 1545 1544 1544 1543 1543 1543 1542 1542 1542 1542
1568 1567 1567 1566 1566 1565 1564 1564 1563 1562 1562 1561 1561 1561 1561 1561 1561 1561 1561 1561 1561 1561 1561 1560 1559 1558 1556 1555 1554 1552 1551 1550 1548 1547 1546 1545 1544 1544 1544 1543 1543 1543 1543
1569 1568 1568 1567 1567 1567 1566 1565 1565 1564 1564 1563 1563 1563 1562 1562 1562 1562 1562 1562 1562 1562 1562 1561 1560 1559 1558 1557 1555 1554 1552 1551 1550 1548 1547 1546 1545 1545 1544 1543 1543 1543 1543
1570 1570 1569 1569 1568 1568 1567 1567 1566 1566 1565 1565 1564 1564 1564 1563 1563 1563 1563 1563 1563 1562 1562 1562 1561 1560 1559 1558 1556 1555 1553 1552 1551 1550 1548 1547 1546 1545 1545 1544 1543 1543 1542
1570 1570 1570 1570 1569 1569 1568 1568 1568 1567 1567 1566 1566 1566 1565 1565 1564 1564 1564 1564 1564 1563 1563 1563 1562 1561 1560 1559 1557 1556 1554 1553 1552 1550 1549 1548 1547 1546 1545 1544 1543 1542 1542
1571 1571 1571 1570 1570 1570 1569 1569 1569 1568 1568 1567 1567 1567 1566 1566 1565 1565 1565 1564 1564 1564 1563 1563 1563 1562 1560 1559 1557 1556 1554 1553 1552 1550 1549 1547 1546 1545 1544 1543 1542 1541 1540
1571 1571 1571 1571 1570 1570 1570 1570 1570 1569 1569 1568 1568 1568 1567 1567 1566 1566 1565 1565 1565 1564 1564 1563 1562 1561 1560 1559 1557 1556 1554 1553 1552 1550 1548 1547 1546 1544 1543 1542 1541 1540 1539
1571 1571 1571 1571 1571 1571 1571 1570 1570 1570 1570 1569 1569 1568 1568 1567 1567 1566 1566 1566 1565 1565 1564 1563 1562 1561 1560 1559 1557 1556 1554 1553 1551 1550 1548 1546 1545 1543 1542 1541 1539 1538 1537
1570 1571 1571 1571 1571 1571 1571 1571 1571 1570 1570 1570 1569 1569 1568 1568 1567 1567 1566 1566 1565 1565 1564 1563 1562 1561 1559 1558 1557 1555 1553 1552 1550 1549 1547 1545 1544 1542 1540 1539 1537 1536 1534
1570 1570 1571 1571 1571 1571 1571 1571 1571 1570 1570 1570 1569 1569 1568 1568 1568 1567 1567 1566 1565 1564 1563 1562 1561 1560 1558 1557 1555 1554 1552 1550 1549 1547 1545 1544 1542 1540 1539 1537 1535 1533 1532
1568 1569 1570 1570 1570 1570 1570 1570 1570 1570 1570 1569 1569 1569 1568 1568 1567 1567 1566 1566 1565 1564 1562 1561 1560 1559 1557 1556 1555 1553 1551 1548 1546 1546 1543 1542 1541 1538 1536 1535 1533 1531 1529
1567 1567 1568 1569 1569 1569 1569 1569 1569 1569 1569 1569 1568 1568 1568 1567 1567 1566 1565 1565 1564 1563 1562 1561 1559 1558 1556 1555 1553 1551 1549 1548 1546 1544 1542 1539 1538 1536 1534 1532 1530 1528 1525
1565 1566 1566 1567 1567 1568 1568 1568 1568 1568 1568 1568 1567 1567 1566 1566 1566 1565 1564 1563 1562 1561 1560 1559 1558 1556 1555 1553 1552 1550 1548 1546 1544 1542 1540 1537 1534 1532 1530 1529 1527 1524 1522
1563 1563 1564 1565 1565 1566 1566 1566 1566 1566 1566 1566 1566 1565 1565 1564 1564 1563 1562 1561 1560 1559 1558 1557 1556 1554 1553 1551 1550 1548 1545 1543 1540 1539 1537 1534 1531 1528 1525 1524 1522 1520 1517
1560 1561 1562 1562 1563 1563 1564 1564 1564 1564 1564 1564 1564 1563 1563 1562 1562 1561 1560 1559 1558 1557 1556 1555 1554 1552 1551 1549 1547 1545 1543 1541 1538 1536 1534 1531 1528 1525 1520 1518 1517 1515 1512